[[{"header":{"parameterUnit":"m.s-1","parameterCategory":1,"la1":30.2992,"la2":30.254,"lo1":-89.0895,"lo2":-89.0443,"dy":0.0025,"dx":0.0025,"nx":19,"ny":19,"refTime":"2026-05-16T03:00:00:Z","depth":0,"parameterNumber":2,"parameterNumberName":"U-component_of_WINDS"},"data":[0,0,0,-1.9697,-1.9697,-1.966,-1.966,-1.9624,-1.9624,0,0,0,0,0,0,0,0,0,0,0,-1.9716,-1.9716,-1.9697,-1.9697,-1.966,-1.966,-1.9624,-1.9624,0,0,0,0,0,0,0,0,0,0,0,-1.9715,-1.9716,-1.9716,-1.9696,-1.966,-1.966,-1.9624,-1.9648,0,0,0,0,0,0,0,0,0,0,-1.9681,-1.9706,-1.9716,-1.9716,-1.9696,-1.9661,-1.966,-1.9649,-1.9646,-1.9646,0,-1.9648,0,-1.9636,-1.9623,-1.9622,0,0,0,-1.969,-1.9708,-1.9691,-1.9716,-1.9696,-1.9661,-1.9675,-1.9647,-1.9644,-1.9643,-1.9648,-1.9646,-1.9635,-1.9622,-1.9622,-1.9644,-1.9644,0,0,-1.9692,-1.9713,-1.9693,-1.969,-1.9698,-1.9676,-1.9674,-1.9645,-1.9652,-1.9648,-1.9645,-1.9635,-1.9622,-1.9622,-1.9643,-1.9644,0,0,0,-1.9702,-1.9714,-1.9698,-1.9692,-1.9685,-1.9675,-1.9673,-1.9653,-1.9646,-1.9645,-1.9634,-1.9622,-1.9622,-1.9643,-1.9644,-1.9683,0,0,0,-1.9703,-1.972,-1.97,-1.9712,-1.9685,-1.9669,-1.9681,-1.9648,-1.9644,-1.9635,-1.9622,-1.9622,-1.9642,-1.9643,-1.9681,-1.9697,0,0,0,-1.9715,-1.9721,-1.9719,-1.9713,-1.9698,-1.9669,-1.966,-1.9647,-1.9638,-1.9622,-1.9621,-1.9642,-1.9643,-1.9679,-1.9694,-1.9708,0,0,0,-1.9733,-1.9754,-1.972,-1.9739,-1.9699,-1.9694,-1.966,-1.9655,-1.9646,-1.9622,-1.9643,-1.9644,-1.9678,-1.9692,-1.9707,-1.9723,-1.9733,0,0,-1.977,-1.9759,-1.9768,-1.9737,-1.9744,-1.9698,-1.971,-1.9682,-1.9661,-1.965,-1.9651,-1.9682,-1.9694,-1.9708,-1.978,-1.9788,0,0,0,-1.9787,-1.9793,-1.9791,-1.9784,-1.9765,-1.9749,-1.9717,-1.9707,-1.9697,-1.966,-1.9691,-1.9697,-1.9705,-1.9712,-1.9718,-1.9723,-1.9648,-1.9648,-1.9648,-1.9866,-1.984,-1.9854,-1.9824,-1.9818,-1.9786,-1.9778,-1.9758,-1.9732,-1.974,-1.9736,-1.9783,-1.9792,-1.9797,-1.9802,-1.9744,-1.9744,-1.9745,-1.9745,-1.9916,-1.9921,-1.9889,-1.989,-1.9862,-1.9862,-1.9833,-1.9815,-1.981,-1.9784,-1.9789,-1.9762,-1.9806,-1.9809,-1.9747,-1.9747,-1.9747,-1.9746,-1.9746,-1.9964,-1.9962,-1.9951,-1.9939,-1.9933,-1.9902,-1.99,-1.9874,-1.985,-1.9855,-1.9848,-1.9847,-1.9842,-1.9854,-1.9854,-1.9854,-1.9855,-1.9855,-1.9855,-2.0018,-2.0004,-2.0005,-1.9988,-1.9981,-1.9968,-1.9937,-1.9929,-1.9913,-1.9894,-1.9894,-1.9867,-1.9817,-1.9803,-1.9857,-1.9857,-1.9856,-1.9856,-1.9856,-2.0075,-2.0059,-2.0062,-2.0055,-2.0032,-2.0027,-1.9996,-1.9982,-1.9971,-1.9971,-1.9944,-1.9911,-1.9896,-1.9891,-1.988,-1.995,-1.995,-1.995,-1.995,-2.0115,-2.0106,-2.0103,-2.0094,-2.0082,-2.0055,-2.0058,-2.0034,-2.0007,-1.9999,-1.9986,-1.9969,-1.9965,-1.9953,-1.9946,-1.9935,-2.0018,-2.0018,-2.0018,-2.0148,-2.0138,-2.0145,-2.012,-2.0101,-2.0085,-2.0087,-2.0076,-2.0042,-2.002,-1.9992,-1.9989,-1.9962,-1.9955,-1.9931,-1.9921,-1.9901,0,0]},{"header":{"parameterUnit":"m.s-1","parameterCategory":1,"la1":30.2992,"la2":30.254,"lo1":-89.0895,"lo2":-89.0443,"dy":0.0025,"dx":0.0025,"nx":19,"ny":19,"refTime":"2026-05-16T03:00:00:Z","depth":0,"parameterNumber":3,"parameterNumberName":"V-component_of_WINDS"},"data":[0,0,0,3.6199,3.6198,3.6186,3.6186,3.6175,3.6175,0,0,0,0,0,0,0,0,0,0,0,3.6207,3.6207,3.6199,3.6198,3.6186,3.6186,3.6175,3.6175,0,0,0,0,0,0,0,0,0,0,0,3.6207,3.6207,3.6207,3.6198,3.6186,3.6186,3.6175,3.6183,0,0,0,0,0,0,0,0,0,0,3.6194,3.6205,3.6207,3.6207,3.6198,3.6186,3.6186,3.6183,3.6182,3.6184,0,3.6187,0,3.6181,3.6175,3.6175,0,0,0,3.6195,3.6206,3.6199,3.6207,3.6198,3.6186,3.6191,3.6182,3.6182,3.6183,3.6187,3.6186,3.6181,3.6175,3.6175,3.6197,3.6197,0,0,3.6196,3.6206,3.62,3.6199,3.6202,3.6191,3.619,3.6182,3.6186,3.6187,3.6186,3.6181,3.6175,3.6175,3.6197,3.6197,0,0,0,3.62,3.6207,3.62,3.6199,3.6197,3.6191,3.619,3.6187,3.6184,3.6185,3.618,3.6175,3.6175,3.6196,3.6197,3.622,0,0,0,3.62,3.6209,3.62,3.6207,3.6197,3.6192,3.6195,3.6184,3.6183,3.6181,3.6175,3.6175,3.6196,3.6197,3.6219,3.6229,0,0,0,3.6206,3.621,3.621,3.6207,3.6202,3.6192,3.6188,3.6184,3.618,3.6175,3.6175,3.6196,3.6196,3.6217,3.6227,3.6237,0,0,0,3.6215,3.623,3.621,3.6226,3.6203,3.6206,3.6188,3.619,3.6188,3.6175,3.6196,3.6197,3.6217,3.6225,3.6236,3.6247,3.6254,0,0,3.624,3.6234,3.6242,3.6224,3.6234,3.6207,3.6221,3.6209,3.6198,3.6198,3.6198,3.6219,3.6227,3.6237,3.6285,3.6289,0,0,0,3.6253,3.6259,3.6259,3.6259,3.6251,3.6245,3.623,3.6226,3.6225,3.6201,3.6226,3.623,3.6235,3.624,3.6244,3.6248,3.62,3.62,3.62,3.6303,3.629,3.6302,3.6287,3.6287,3.6272,3.627,3.6262,3.6248,3.6254,3.6254,3.6284,3.629,3.6293,3.6298,3.6259,3.6259,3.6259,3.6259,3.6338,3.6344,3.6326,3.6332,3.6317,3.6322,3.6308,3.6298,3.6299,3.6283,3.6288,3.6271,3.6299,3.6302,3.6261,3.6261,3.626,3.626,3.626,3.6369,3.6369,3.6365,3.6363,3.6363,3.6347,3.6349,3.6336,3.6323,3.6328,3.6326,3.6325,3.6322,3.6328,3.6328,3.6328,3.6328,3.6328,3.6328,3.6402,3.6396,3.64,3.6394,3.6392,3.6387,3.6373,3.637,3.6364,3.6354,3.6354,3.6339,3.6305,3.6296,3.633,3.633,3.6329,3.6329,3.6329,3.6442,3.6431,3.6437,3.6435,3.6426,3.6427,3.641,3.6406,3.6402,3.6404,3.6388,3.6366,3.6358,3.6354,3.6347,3.6392,3.6392,3.6392,3.6392,3.6467,3.6462,3.6465,3.6463,3.646,3.6446,3.6452,3.6442,3.6428,3.6425,3.6417,3.6406,3.6403,3.6397,3.6393,3.6385,3.6439,3.6439,3.6439,3.649,3.6484,3.6493,3.6481,3.6473,3.6466,3.6472,3.647,3.6453,3.6441,3.6422,3.642,3.6402,3.6398,3.6384,3.6378,3.6365,0,0]}]]